THEMIS A

Last updated on Sun Apr 12 2026 00:02:44 GMT+0000 (Coordinated Universal Time)

1 30580U 07004A 26100.39012023 -.00000004 00000+0 -28859-1 0 9994 2 30580 7.3717 115.8659 8388234 185.7470 145.2932 0.87845294 40687
UTC large
Height (km)
Speed (km/s)
/
Latitude / Longitude
Inclination (degrees)
Orbital Period (minutes)
Azimuth
Elevation
Range (km)
Doppler Factor

Next 0 passes for location: London (51.5072 / 0.1276)

Sorry there are no passes over London.